CSZ652 RJAA-ZGSZ

Flight info

Callsign CSZ652
Flight time N/A
Altitude 32000
Route REDEK Y60 ISAKY Y592 ONIKU/N0450F300 A593 LAMEN/M078S1040 A593 PUD A599 NXD W131 AKDIM A470 DUBGO W134 ELNEX A599 PLT W19 ATKAV W20 SALIV R473 NOLON W90 POU W7 SAREX
Aircraft B38M/M-SDE2E3FGHIRWYZ/LB1

Departure

Time N/A
Airport Narita International Airport (RJAA)

Arrival

Time 2026-04-27 14:30
Airport Shenzhen Bao'an International Airport (ZGSZ)
Time Latitude Longitude Altitude Speed Heading
2026-04-27 12:43 31.06932 121.13272 31928 ft 409 kts 256°
2026-04-27 12:44 31.05392 121.06941 31926 ft 409 kts 256°
2026-04-27 12:44 31.03828 121.00555 31921 ft 409 kts 256°
2026-04-27 12:45 31.02265 120.94182 32021 ft 409 kts 256°
2026-04-27 12:45 31.00696 120.87809 32018 ft 408 kts 256°
2026-04-27 12:46 30.99130 120.81458 32006 ft 412 kts 255°
2026-04-27 12:46 30.97543 120.75027 32020 ft 412 kts 256°
2026-04-27 12:47 30.95980 120.68639 32022 ft 412 kts 256°
2026-04-27 12:47 30.94401 120.62206 32018 ft 413 kts 256°
2026-04-27 12:48 30.92820 120.55776 32021 ft 412 kts 256°
2026-04-27 12:48 30.91236 120.49354 32022 ft 412 kts 255°
2026-04-27 12:49 30.88957 120.43245 32014 ft 418 kts 234°
2026-04-27 12:49 30.86874 120.40910 32018 ft 427 kts 221°
2026-04-27 12:49 30.84474 120.38834 32030 ft 430 kts 221°
2026-04-27 12:50 30.79608 120.34729 32029 ft 431 kts 220°
2026-04-27 12:50 30.74734 120.30703 32027 ft 431 kts 220°
2026-04-27 12:51 30.69822 120.26667 32027 ft 431 kts 220°
2026-04-27 12:51 30.64911 120.22638 32017 ft 432 kts 220°
2026-04-27 12:52 30.60021 120.18631 32032 ft 432 kts 220°
2026-04-27 12:52 30.55102 120.14606 32036 ft 432 kts 220°
2026-04-27 12:53 30.47728 120.08581 32041 ft 432 kts 220°
2026-04-27 12:53 30.42709 120.04676 32032 ft 437 kts 213°
2026-04-27 12:54 30.37434 120.01230 32035 ft 437 kts 215°
2026-04-27 12:54 30.32149 119.97698 32040 ft 437 kts 215°
2026-04-27 12:55 30.26920 119.94194 32042 ft 437 kts 215°
2026-04-27 12:55 30.21659 119.90673 32048 ft 437 kts 215°
2026-04-27 12:56 30.16391 119.87150 32053 ft 435 kts 215°
2026-04-27 12:56 30.11171 119.83665 32041 ft 436 kts 215°
2026-04-27 12:57 30.05900 119.80148 32035 ft 437 kts 215°
2026-04-27 12:57 30.00629 119.76602 32055 ft 439 kts 215°
2026-04-27 12:58 29.95354 119.73061 32047 ft 438 kts 216°
2026-04-27 12:58 29.90112 119.69545 32060 ft 439 kts 215°
2026-04-27 12:59 29.84908 119.65929 32055 ft 434 kts 219°
2026-04-27 12:59 29.79907 119.61980 32050 ft 437 kts 219°
2026-04-27 13:00 29.74865 119.58061 32053 ft 437 kts 218°
2026-04-27 13:00 29.69816 119.54152 32055 ft 437 kts 219°
2026-04-27 13:01 29.64811 119.50281 32058 ft 435 kts 219°
2026-04-27 13:01 29.62489 119.48091 32014 ft 427 kts 232°
2026-04-27 13:01 29.60515 119.45536 32040 ft 430 kts 231°
2026-04-27 13:02 29.56468 119.40452 32052 ft 430 kts 231°
2026-04-27 13:02 29.52469 119.35366 32047 ft 430 kts 232°
2026-04-27 13:03 29.48477 119.30287 32047 ft 430 kts 232°
2026-04-27 13:03 29.44459 119.25179 32043 ft 429 kts 232°
2026-04-27 13:04 29.40470 119.20113 32033 ft 431 kts 231°
2026-04-27 13:04 29.36426 119.14987 32033 ft 431 kts 231°
2026-04-27 13:05 29.32417 119.09927 32052 ft 431 kts 231°
2026-04-27 13:05 29.28407 119.04869 32050 ft 431 kts 231°
2026-04-27 13:06 29.24365 118.99777 32039 ft 431 kts 231°
2026-04-27 13:06 29.20336 118.94709 32063 ft 432 kts 231°
2026-04-27 13:07 29.16297 118.89634 32049 ft 431 kts 232°
2026-04-27 13:07 29.12277 118.84592 32052 ft 431 kts 231°
2026-04-27 13:08 29.08218 118.79504 32041 ft 431 kts 231°
2026-04-27 13:08 29.04175 118.74461 31931 ft 430 kts 231°
2026-04-27 13:09 29.00115 118.69369 32039 ft 435 kts 231°
2026-04-27 13:09 28.96061 118.64307 32051 ft 433 kts 231°
2026-04-27 13:10 28.91993 118.59235 32036 ft 432 kts 231°
2026-04-27 13:10 28.87943 118.54191 32038 ft 432 kts 231°
2026-04-27 13:11 28.83874 118.49131 32032 ft 432 kts 231°
2026-04-27 13:11 28.79813 118.44086 32038 ft 433 kts 231°
2026-04-27 13:12 28.75713 118.38998 32036 ft 435 kts 231°
2026-04-27 13:12 28.72306 118.34776 32039 ft 435 kts 231°
2026-04-27 13:13 28.68224 118.29723 32029 ft 434 kts 231°
2026-04-27 13:13 28.63453 118.23825 32020 ft 435 kts 230°
2026-04-27 13:14 28.60024 118.19591 32033 ft 437 kts 230°
2026-04-27 13:14 28.55894 118.14498 32034 ft 437 kts 230°
2026-04-27 13:15 28.51760 118.09405 32032 ft 437 kts 230°
2026-04-27 13:15 28.47653 118.04352 32030 ft 438 kts 230°
2026-04-27 13:16 28.43513 117.99263 32026 ft 438 kts 230°
2026-04-27 13:16 28.39295 117.94229 32038 ft 439 kts 229°
2026-04-27 13:17 28.35077 117.89247 32042 ft 439 kts 229°
2026-04-27 13:17 28.30835 117.84236 32041 ft 439 kts 229°
2026-04-27 13:18 28.26615 117.79257 32048 ft 439 kts 229°
2026-04-27 13:18 28.22374 117.74259 32049 ft 439 kts 229°
2026-04-27 13:19 28.18158 117.69298 32051 ft 439 kts 229°
2026-04-27 13:19 28.13916 117.64299 31985 ft 439 kts 229°
2026-04-27 13:20 28.11799 117.61819 32124 ft 440 kts 229°
2026-04-27 13:20 28.09669 117.59323 32047 ft 439 kts 229°
2026-04-27 13:20 28.05430 117.54354 32044 ft 439 kts 229°
2026-04-27 13:21 28.01206 117.49406 32050 ft 439 kts 229°
2026-04-27 13:21 27.96951 117.44429 32044 ft 440 kts 229°
2026-04-27 13:22 27.92694 117.39454 32059 ft 440 kts 229°
2026-04-27 13:22 27.88419 117.34466 32060 ft 441 kts 229°
2026-04-27 13:23 27.84179 117.29525 32059 ft 440 kts 229°
2026-04-27 13:23 27.79909 117.24550 32029 ft 441 kts 229°
2026-04-27 13:24 27.75620 117.19566 32044 ft 444 kts 228°
2026-04-27 13:24 27.71321 117.14571 31991 ft 441 kts 228°
2026-04-27 13:25 27.67762 117.10444 32058 ft 442 kts 228°
2026-04-27 13:25 27.62783 117.04675 32058 ft 441 kts 228°
2026-04-27 13:26 27.58495 116.99712 32031 ft 441 kts 228°
2026-04-27 13:26 27.54194 116.94738 32018 ft 443 kts 228°
2026-04-27 13:27 27.49909 116.89742 32035 ft 443 kts 229°
2026-04-27 13:27 27.45746 116.84870 32017 ft 443 kts 229°
2026-04-27 13:29 27.32472 116.69374 32020 ft 442 kts 228°
2026-04-27 13:29 27.31028 116.67691 32021 ft 442 kts 228°
2026-04-27 13:30 27.24643 116.60261 32024 ft 442 kts 228°
2026-04-27 13:30 27.20386 116.55260 32023 ft 441 kts 230°
2026-04-27 13:31 27.15543 116.49379 32017 ft 441 kts 229°
2026-04-27 13:31 27.12041 116.45145 32024 ft 441 kts 229°
2026-04-27 13:32 27.07863 116.40098 32025 ft 441 kts 229°
2026-04-27 13:32 27.03708 116.35088 32031 ft 441 kts 229°
2026-04-27 13:33 26.99526 116.30048 32027 ft 441 kts 229°
2026-04-27 13:33 26.95340 116.25012 32029 ft 441 kts 229°
2026-04-27 13:34 26.91167 116.19967 32039 ft 441 kts 229°
2026-04-27 13:34 26.87024 116.14916 32033 ft 440 kts 229°
2026-04-27 13:35 26.82898 116.09895 32030 ft 441 kts 229°
2026-04-27 13:35 26.78745 116.04846 32033 ft 440 kts 229°
2026-04-27 13:36 26.74588 115.99801 32032 ft 441 kts 229°
2026-04-27 13:36 26.70433 115.94763 32032 ft 440 kts 229°
2026-04-27 13:37 26.66275 115.89726 32031 ft 440 kts 229°
2026-04-27 13:37 26.62141 115.84725 32030 ft 440 kts 229°
2026-04-27 13:38 26.57990 115.79709 32032 ft 440 kts 229°
2026-04-27 13:38 26.53822 115.74678 32029 ft 440 kts 229°
2026-04-27 13:39 26.49663 115.69664 32029 ft 440 kts 229°
2026-04-27 13:39 26.45513 115.64667 32033 ft 438 kts 228°
2026-04-27 13:40 26.41369 115.59682 32027 ft 438 kts 229°
2026-04-27 13:40 26.37218 115.54694 32032 ft 438 kts 229°
2026-04-27 13:41 26.33096 115.49748 32029 ft 438 kts 229°
2026-04-27 13:41 26.28947 115.44773 32025 ft 438 kts 229°
2026-04-27 13:42 26.24790 115.39797 32029 ft 439 kts 228°
2026-04-27 13:42 26.20622 115.34810 32029 ft 440 kts 228°
2026-04-27 13:43 26.16447 115.29823 32028 ft 441 kts 228°
2026-04-27 13:43 26.12251 115.24816 32027 ft 441 kts 228°
2026-04-27 13:44 26.08091 115.19856 32030 ft 441 kts 228°
2026-04-27 13:44 26.03895 115.14861 32029 ft 441 kts 228°
2026-04-27 13:45 25.99699 115.09869 32031 ft 441 kts 228°
2026-04-27 13:45 25.95505 115.04887 32032 ft 441 kts 228°
2026-04-27 13:46 25.91310 114.99908 32026 ft 441 kts 229°
2026-04-27 13:46 25.87115 114.94934 32021 ft 441 kts 229°
2026-04-27 13:47 25.82928 114.90014 32023 ft 442 kts 225°
2026-04-27 13:47 25.80431 114.88007 32001 ft 447 kts 210°
2026-04-27 13:47 25.77496 114.86807 32035 ft 454 kts 197°
2026-04-27 13:48 25.71329 114.85168 32029 ft 455 kts 196°
2026-04-27 13:48 25.65174 114.83610 32026 ft 456 kts 196°
2026-04-27 13:49 25.58947 114.82062 32030 ft 455 kts 196°
2026-04-27 13:49 25.52789 114.80535 32022 ft 456 kts 196°
2026-04-27 13:50 25.46602 114.79003 32033 ft 457 kts 196°
2026-04-27 13:50 25.40398 114.77469 32034 ft 457 kts 196°
2026-04-27 13:51 25.34188 114.75934 32031 ft 457 kts 196°
2026-04-27 13:51 25.28024 114.74413 32030 ft 456 kts 196°
2026-04-27 13:52 25.21818 114.72883 32034 ft 456 kts 196°
2026-04-27 13:52 25.15631 114.71358 32031 ft 456 kts 196°
2026-04-27 13:53 25.06328 114.69070 32034 ft 456 kts 196°
2026-04-27 13:54 25.00131 114.67547 32032 ft 456 kts 196°
2026-04-27 13:54 24.93940 114.66028 32042 ft 456 kts 196°
2026-04-27 13:55 24.87793 114.64520 32036 ft 456 kts 196°
2026-04-27 13:55 24.81595 114.62998 32054 ft 456 kts 196°
2026-04-27 13:56 24.75392 114.61475 32048 ft 456 kts 196°
2026-04-27 13:56 24.69330 114.59591 32036 ft 448 kts 211°
2026-04-27 13:57 24.63915 114.56246 32033 ft 437 kts 212°
2026-04-27 13:57 24.61294 114.54616 31646 ft 430 kts 212°
2026-04-27 13:57 24.58704 114.52990 31089 ft 428 kts 212°
2026-04-27 13:57 24.56120 114.51361 30501 ft 428 kts 212°
2026-04-27 13:58 24.53544 114.49737 29915 ft 426 kts 212°
2026-04-27 13:58 24.50974 114.48116 29271 ft 425 kts 212°
2026-04-27 13:58 24.48422 114.46508 28726 ft 421 kts 212°
2026-04-27 13:58 24.45916 114.44928 28187 ft 418 kts 212°
2026-04-27 13:59 24.43427 114.43303 27640 ft 414 kts 218°
2026-04-27 13:59 24.41360 114.41144 26980 ft 409 kts 234°
2026-04-27 13:59 24.39967 114.38451 26505 ft 404 kts 247°
2026-04-27 13:59 24.38844 114.35641 26024 ft 400 kts 247°
2026-04-27 14:00 24.37761 114.32831 25514 ft 399 kts 248°
2026-04-27 14:00 24.36705 114.30028 25006 ft 397 kts 248°
2026-04-27 14:00 24.35664 114.27225 24509 ft 395 kts 248°
2026-04-27 14:00 24.34649 114.24471 24033 ft 394 kts 248°
2026-04-27 14:01 24.33627 114.21690 23548 ft 392 kts 248°
2026-04-27 14:01 24.32607 114.18912 22986 ft 391 kts 248°
2026-04-27 14:01 24.31594 114.16155 22490 ft 388 kts 248°
2026-04-27 14:01 24.30592 114.13429 22027 ft 384 kts 248°
2026-04-27 14:02 24.29599 114.10728 21581 ft 380 kts 248°
2026-04-27 14:02 24.28511 114.08102 21094 ft 378 kts 238°
2026-04-27 14:02 24.26788 114.05935 20618 ft 379 kts 220°
2026-04-27 14:02 24.24621 114.04307 20229 ft 375 kts 216°
2026-04-27 14:03 24.22439 114.02740 19811 ft 372 kts 215°
2026-04-27 14:03 24.20297 114.01224 19398 ft 370 kts 215°
2026-04-27 14:03 24.18137 113.99712 18982 ft 367 kts 215°
2026-04-27 14:03 24.15985 113.98214 18577 ft 364 kts 215°
2026-04-27 14:04 24.13850 113.96731 18164 ft 362 kts 215°
2026-04-27 14:04 24.11726 113.95259 17723 ft 359 kts 214°
2026-04-27 14:04 24.09792 113.93620 17690 ft 349 kts 224°
2026-04-27 14:04 24.07983 113.91829 17644 ft 356 kts 224°
2026-04-27 14:05 24.06095 113.89971 17637 ft 372 kts 224°
2026-04-27 14:05 24.04156 113.88064 17638 ft 378 kts 224°
2026-04-27 14:05 24.02185 113.86126 17639 ft 381 kts 223°
2026-04-27 14:05 24.00207 113.84181 17644 ft 382 kts 224°
2026-04-27 14:06 23.98258 113.82265 17639 ft 382 kts 224°
2026-04-27 14:06 23.96283 113.80325 17641 ft 382 kts 224°
2026-04-27 14:06 23.94301 113.78380 17640 ft 383 kts 223°
2026-04-27 14:06 23.92322 113.76436 17647 ft 383 kts 224°
2026-04-27 14:07 23.90339 113.74492 17647 ft 382 kts 223°
2026-04-27 14:07 23.88360 113.72551 17642 ft 382 kts 223°
2026-04-27 14:07 23.86357 113.70642 17757 ft 381 kts 220°
2026-04-27 14:07 23.84373 113.68732 17639 ft 380 kts 224°
2026-04-27 14:08 23.82421 113.66771 17654 ft 382 kts 224°
2026-04-27 14:08 23.80450 113.64817 17632 ft 382 kts 224°
2026-04-27 14:08 23.78479 113.62878 17643 ft 381 kts 223°
2026-04-27 14:08 23.76501 113.60940 17631 ft 379 kts 223°
2026-04-27 14:09 23.74581 113.59062 17388 ft 370 kts 223°
2026-04-27 14:09 23.72683 113.57207 17122 ft 361 kts 223°
2026-04-27 14:09 23.70832 113.55399 16877 ft 354 kts 223°
2026-04-27 14:09 23.69019 113.53628 16645 ft 346 kts 223°
2026-04-27 14:10 23.67231 113.51883 16413 ft 344 kts 223°
2026-04-27 14:10 23.65448 113.50143 16184 ft 343 kts 223°
2026-04-27 14:10 23.63671 113.48409 15940 ft 342 kts 223°
2026-04-27 14:10 23.61899 113.46682 15710 ft 341 kts 223°
2026-04-27 14:11 23.60130 113.44958 15487 ft 340 kts 223°
2026-04-27 14:11 23.58369 113.43241 15267 ft 339 kts 223°
2026-04-27 14:11 23.56613 113.41530 15051 ft 337 kts 223°
2026-04-27 14:11 23.54889 113.39852 14836 ft 335 kts 222°
2026-04-27 14:12 23.53646 113.38802 14670 ft 335 kts 211°
2026-04-27 14:12 23.51529 113.37825 14476 ft 336 kts 201°
2026-04-27 14:12 23.49336 113.36952 14252 ft 335 kts 201°
2026-04-27 14:12 23.47147 113.36097 14038 ft 334 kts 201°
2026-04-27 14:13 23.44960 113.35253 13824 ft 332 kts 201°
2026-04-27 14:13 23.43514 113.34699 13672 ft 332 kts 201°
2026-04-27 14:13 23.42048 113.34138 13506 ft 331 kts 201°
2026-04-27 14:13 23.38444 113.32765 13101 ft 329 kts 201°
2026-04-27 14:14 23.36288 113.31944 12861 ft 327 kts 201°
2026-04-27 14:14 23.34145 113.31129 12623 ft 326 kts 201°
2026-04-27 14:14 23.32005 113.30316 12381 ft 325 kts 201°
2026-04-27 14:14 23.29180 113.29242 12075 ft 323 kts 200°
2026-04-27 14:15 23.27053 113.28438 11840 ft 322 kts 199°
2026-04-27 14:15 23.24841 113.28108 11581 ft 324 kts 177°
2026-04-27 14:15 23.22663 113.28742 11353 ft 328 kts 158°
2026-04-27 14:15 23.20642 113.29909 11132 ft 329 kts 154°
2026-04-27 14:16 23.18648 113.31069 10888 ft 328 kts 155°
2026-04-27 14:16 23.16631 113.32230 10751 ft 318 kts 155°
2026-04-27 14:16 23.14748 113.33310 10753 ft 304 kts 155°
2026-04-27 14:16 23.12905 113.34364 10751 ft 295 kts 155°
2026-04-27 14:17 23.11092 113.35394 10739 ft 294 kts 155°
2026-04-27 14:17 23.09275 113.36423 10728 ft 293 kts 155°
2026-04-27 14:17 23.08055 113.37113 10731 ft 293 kts 155°
2026-04-27 14:17 23.05656 113.38470 10692 ft 294 kts 155°
2026-04-27 14:18 23.04452 113.39149 10527 ft 294 kts 156°
2026-04-27 14:18 23.02628 113.40179 10184 ft 295 kts 155°
2026-04-27 14:18 23.00810 113.41205 9848 ft 295 kts 155°
2026-04-27 14:18 22.98991 113.42231 9480 ft 294 kts 155°
2026-04-27 14:19 22.97172 113.43258 9120 ft 294 kts 155°
2026-04-27 14:19 22.95364 113.44277 8765 ft 290 kts 155°
2026-04-27 14:19 22.93617 113.45263 8392 ft 281 kts 155°
2026-04-27 14:19 22.91889 113.46237 7875 ft 278 kts 155°
2026-04-27 14:20 22.90184 113.47198 7369 ft 275 kts 155°
2026-04-27 14:20 22.88442 113.48032 6839 ft 270 kts 169°
2026-04-27 14:20 22.86609 113.48100 6502 ft 258 kts 184°
2026-04-27 14:20 22.84875 113.48014 6236 ft 248 kts 183°
2026-04-27 14:21 22.83172 113.47917 5966 ft 238 kts 184°
2026-04-27 14:21 22.81544 113.47846 5616 ft 232 kts 177°
2026-04-27 14:21 22.80025 113.48374 5159 ft 232 kts 146°
2026-04-27 14:21 22.78993 113.49683 4741 ft 235 kts 114°
2026-04-27 14:22 22.78747 113.51414 4450 ft 238 kts 84°
2026-04-27 14:22 22.79257 113.53125 4141 ft 240 kts 68°
2026-04-27 14:22 22.79958 113.54762 3856 ft 240 kts 66°
2026-04-27 14:22 22.80676 113.56392 3604 ft 238 kts 66°
2026-04-27 14:23 22.81387 113.58013 3353 ft 236 kts 67°
2026-04-27 14:23 22.82091 113.59603 3325 ft 238 kts 66°
2026-04-27 14:23 22.82793 113.61202 3304 ft 229 kts 66°
2026-04-27 14:23 22.83299 113.62765 3261 ft 212 kts 89°
2026-04-27 14:24 22.83138 113.64260 3261 ft 193 kts 105°
2026-04-27 14:24 22.82825 113.65657 3175 ft 190 kts 106°
2026-04-27 14:24 22.82502 113.67039 3077 ft 189 kts 107°
2026-04-27 14:24 22.82189 113.68419 2936 ft 188 kts 106°
2026-04-27 14:25 22.81875 113.69791 2768 ft 187 kts 107°
2026-04-27 14:25 22.81325 113.71036 2583 ft 182 kts 133°
2026-04-27 14:25 22.80376 113.71932 2464 ft 181 kts 147°
2026-04-27 14:25 22.79288 113.72601 2395 ft 180 kts 154°
2026-04-27 14:26 22.78166 113.73211 2311 ft 180 kts 154°
2026-04-27 14:26 22.77044 113.73827 2286 ft 181 kts 154°
2026-04-27 14:26 22.75921 113.74445 2188 ft 180 kts 154°
2026-04-27 14:26 22.74885 113.75017 2011 ft 162 kts 154°
2026-04-27 14:27 22.73898 113.75561 1818 ft 156 kts 153°
2026-04-27 14:27 22.72942 113.76089 1655 ft 153 kts 152°
2026-04-27 14:27 22.72002 113.76607 1449 ft 146 kts 152°
2026-04-27 14:27 22.71117 113.77096 1256 ft 141 kts 152°
2026-04-27 14:28 22.70243 113.77578 1072 ft 141 kts 152°
2026-04-27 14:28 22.69364 113.78063 906 ft 142 kts 152°
2026-04-27 14:28 22.68488 113.78546 733 ft 144 kts 152°
2026-04-27 14:28 22.67580 113.79047 558 ft 146 kts 153°
2026-04-27 14:29 22.66686 113.79539 361 ft 146 kts 152°
2026-04-27 14:29 22.65781 113.80038 170 ft 146 kts 152°
2026-04-27 14:29 22.64885 113.80535 19 ft 138 kts 152°
2026-04-27 14:29 22.64204 113.80911 19 ft 75 kts 153°
2026-04-27 14:30 22.63847 113.81107 18 ft 54 kts 153°
2026-04-27 14:30 22.63586 113.81236 18 ft 18 kts 165°
2026-04-27 14:30 22.63453 113.81251 18 ft 20 kts 183°
2026-04-27 14:30 22.63374 113.81247 18 ft 9 kts 183°
2026-04-27 14:31 22.63329 113.81244 18 ft 0 kts 183°
2026-04-27 14:32 22.63317 113.81240 18 ft 3 kts 206°
2026-04-27 14:32 22.63305 113.81207 18 ft 7 kts 261°
2026-04-27 14:32 22.63285 113.81147 18 ft 10 kts 247°
2026-04-27 14:33 22.63280 113.81064 18 ft 12 kts 262°
2026-04-27 14:33 22.63242 113.80970 18 ft 15 kts 243°
2026-04-27 14:33 22.63194 113.80865 18 ft 6 kts 243°
2026-04-27 14:33 22.63158 113.80831 18 ft 8 kts 184°
2026-04-27 14:34 22.63104 113.80864 18 ft 10 kts 126°
2026-04-27 14:34 22.63097 113.80929 18 ft 2 kts 89°
2026-04-27 14:34 22.63086 113.80949 19 ft 4 kts 147°
2026-04-27 14:34 22.63069 113.80956 18 ft 2 kts 165°
2026-04-27 14:35 22.63053 113.80959 18 ft 4 kts 171°
2026-04-27 14:35 22.63033 113.80962 18 ft 2 kts 172°
2026-04-27 14:35 22.63032 113.80962 18 ft 0 kts 172°